Wind_Speed
67 70 68 68 67 66 66 68 69 67 65 63 61 59 57 54 53 53 53 53 53 52 52 51 50 48 48 47 48 48 47 45 42 38 35 32 31 35 39 36 36 44 50 50 49 48 44 42 44 42 40 39 37 36 36 37 37 36 35 34 32 30 28 25 23 21 20 19 18 20 20 20 20 20 20 18 16 16 16 15 15 14 15 16 17 17 17 17
66 69 69 69 69 66 63 64 67 67 65 63 61 60 57 55 53 53 53 53 53 53 52 51 50 49 47 48 48 48 48 45 42 38 34 34 34 35 40 39 35 40 50 53 51 50 46 44 45 42 41 41 40 39 39 39 38 37 36 35 34 32 30 26 23 23 22 20 19 19 19 19 19 20 19 18 17 16 15 15 15 15 16 17 17 18 18 18
66 67 69 68 67 67 65 64 65 66 66 64 62 61 58 56 53 52 53 53 53 53 53 52 50 49 47 48 48 49 48 46 43 38 35 36 36 35 39 40 36 37 49 53 52 51 47 47 46 43 42 41 42 42 41 40 39 38 37 37 36 34 30 27 26 25 23 22 20 20 19 19 19 20 20 19 18 17 16 15 15 15 16 17 17 18 19 19
68 66 67 68 65 64 65 65 66 66 65 64 62 61 59 57 55 53 53 53 54 53 53 52 51 49 47 47 48 49 48 46 42 37 38 39 38 37 38 40 37 36 48 52 52 51 47 48 47 44 43 41 43 44 43 41 40 39 39 38 38 35 31 29 28 26 23 23 23 21 20 20 20 21 21 20 19 18 17 16 16 15 16 17 17 18 19 19
69 68 67 66 64 63 63 64 65 65 64 63 62 61 59 57 55 53 53 53 54 53 52 52 51 50 48 47 49 49 48 46 42 39 42 42 39 38 37 39 38 35 46 51 51 52 48 49 49 45 45 43 43 44 43 42 41 40 40 40 39 35 32 30 29 26 25 26 24 21 20 21 21 21 21 20 19 18 17 17 16 16 16 17 18 18 19 19
66 69 67 64 62 62 61 63 65 64 62 61 61 61 58 57 56 54 53 53 54 53 52 52 51 50 49 48 49 49 48 47 43 43 45 43 39 39 37 40 39 34 42 50 50 53 52 51 51 47 47 44 43 42 42 42 41 41 41 41 38 34 33 31 30 27 26 27 25 22 22 21 21 20 21 20 19 19 18 17 17 18 18 19 19 19 19 19
65 67 66 63 63 61 58 59 63 64 62 60 60 60 59 56 56 54 53 53 54 53 52 52 51 50 49 48 50 50 49 48 46 45 45 42 39 39 37 39 39 36 40 49 50 50 51 53 52 49 47 45 43 42 42 43 42 42 42 41 38 35 35 33 31 29 28 28 26 24 23 22 21 21 22 20 19 20 20 20 20 21 20 20 20 20 20 20
65 68 66 62 63 62 59 58 59 63 62 60 60 60 59 56 55 54 53 53 54 53 52 51 50 50 49 47 49 51 49 48 48 46 45 43 40 39 38 37 38 37 38 46 50 48 48 53 54 51 48 46 43 42 44 44 43 43 42 41 38 37 35 33 32 31 30 30 28 25 23 23 23 23 22 21 20 21 22 23 23 23 22 22 21 20 20 19
67 69 68 64 65 64 62 60 59 61 60 58 58 59 59 57 55 54 53 54 54 53 51 51 50 49 49 47 48 50 48 46 47 46 46 43 40 39 38 37 38 39 38 42 49 49 48 52 53 52 50 48 45 45 46 46 45 43 42 40 38 38 36 34 33 33 33 32 30 26 25 24 24 24 23 21 21 24 24 23 23 23 23 22 22 21 20 19
70 70 68 66 66 65 63 61 59 59 58 57 57 58 58 56 55 55 54 54 54 53 52 51 50 49 49 47 48 49 46 46 47 46 46 43 41 40 38 37 37 39 37 40 48 50 49 52 53 52 51 50 47 48 49 47 46 44 43 42 40 40 37 35 36 35 34 33 31 28 27 26 25 25 23 21 23 25 24 23 23 23 23 22 22 21 20 19
70 69 68 68 65 63 65 61 57 57 56 56 56 56 57 56 55 55 54 54 54 53 52 51 50 48 46 47 47 46 44 46 47 45 46 44 43 41 38 37 37 38 37 39 47 50 50 52 53 53 51 51 49 50 50 48 47 47 46 45 43 41 38 37 38 37 36 34 32 30 29 27 25 25 25 24 25 26 25 25 24 24 23 23 22 21 20 20
69 68 67 69 63 62 66 61 57 59 57 54 55 55 55 56 55 55 54 54 54 53 52 51 49 47 46 48 47 44 42 44 46 45 45 45 44 42 38 37 36 38 37 39 46 49 50 52 53 53 52 51 51 50 50 48 48 49 49 46 44 42 40 39 40 39 37 36 34 33 32 28 26 28 28 26 27 26 25 26 25 24 24 24 23 22 21 21
67 66 68 69 63 64 67 61 58 62 62 57 56 55 55 56 56 56 55 54 54 53 52 51 49 48 48 49 47 45 44 45 47 46 46 45 44 43 38 36 36 37 38 40 45 47 50 52 51 53 54 52 52 52 51 49 49 50 48 46 45 45 43 42 42 40 38 38 36 35 33 29 28 30 29 28 28 27 26 27 26 25 24 24 24 24 23 22
67 64 69 70 62 63 66 64 59 58 63 62 57 57 56 57 58 57 56 55 54 51 52 52 50 49 50 48 45 45 46 45 47 47 46 46 44 43 40 37 37 38 38 39 42 45 48 51 51 54 55 53 52 53 52 51 51 51 48 47 48 47 45 44 44 41 40 40 38 36 34 32 31 31 29 29 30 28 27 27 27 26 25 25 25 24 23 22
72 64 71 73 61 58 64 64 61 57 60 62 58 57 58 59 59 59 57 57 55 50 50 52 50 49 49 47 44 45 45 45 48 47 46 47 45 43 41 39 38 39 39 38 39 41 45 50 52 55 56 54 54 54 53 53 53 51 49 49 49 48 46 45 45 43 42 41 39 38 35 34 33 31 30 31 30 28 28 28 27 26 26 26 26 25 24 22
78 66 71 76 63 58 62 58 60 61 59 60 60 59 60 61 61 60 59 58 57 52 49 51 51 49 47 46 45 45 45 46 49 47 45 47 45 44 42 41 41 41 41 38 36 38 44 49 52 55 57 56 56 55 54 55 53 51 51 51 50 48 47 46 46 45 43 42 40 38 36 35 33 32 31 31 30 29 28 28 27 26 26 26 26 25 23 22
83 71 67 72 65 62 63 54 55 63 62 60 62 62 63 64 63 63 62 60 59 55 49 49 50 49 47 46 45 45 45 46 48 47 46 47 46 44 43 42 42 43 44 40 37 37 42 49 51 54 58 59 59 58 57 56 54 53 53 53 51 50 48 47 46 45 43 42 39 37 37 36 34 33 32 32 31 30 29 29 28 27 26 26 25 25 23 22
85 78 68 67 64 66 68 53 50 63 65 62 63 65 66 66 66 65 64 62 60 57 53 51 50 49 49 46 43 44 44 45 48 48 48 49 48 47 45 44 44 44 44 43 40 38 40 48 50 53 59 62 62 61 60 58 54 54 55 54 53 51 49 48 46 45 43 41 40 39 38 36 35 35 34 33 32 31 30 29 28 27 27 26 26 25 24 23
82 84 76 67 62 68 70 52 50 65 67 66 66 67 70 69 68 67 64 62 60 58 55 52 51 49 46 42 41 42 41 44 48 48 48 50 50 49 47 44 43 43 42 41 40 38 39 45 49 51 57 61 64 63 60 57 54 53 54 53 52 50 48 46 45 44 43 42 41 40 38 36 36 37 36 35 35 34 32 30 28 27 27 26 25 25 24 23
79 84 82 73 63 64 66 52 54 68 68 68 69 69 71 69 68 67 63 59 57 56 53 49 48 46 43 41 42 42 42 45 47 46 46 48 50 50 49 45 42 41 40 39 38 38 38 43 47 47 52 60 65 64 60 57 55 54 54 52 51 49 46 45 44 44 44 43 42 40 39 38 39 39 38 37 37 35 32 29 28 28 27 26 26 25 24 24
77 83 83 80 68 62 62 55 56 67 66 66 67 66 65 63 62 61 58 57 57 57 54 49 47 45 43 43 43 43 44 47 47 46 46 47 48 50 49 47 43 40 38 37 37 37 37 40 42 41 50 62 66 65 61 57 55 54 54 52 51 50 48 47 46 45 45 44 42 42 41 41 40 40 40 39 37 34 32 31 30 30 29 27 26 26 26 25
75 81 83 82 76 65 61 57 55 64 67 64 65 63 61 59 57 55 54 57 60 61 58 54 48 46 46 44 44 43 44 47 47 46 45 45 46 48 49 47 44 40 38 37 37 37 36 36 36 37 51 64 67 65 62 58 56 55 55 53 52 52 50 49 48 46 45 45 44 44 44 42 41 42 41 39 36 35 33 32 32 31 30 28 27 27 27 26
73 78 81 83 81 69 62 58 53 61 68 64 61 62 62 62 59 55 56 58 60 62 60 56 52 50 49 46 46 47 48 48 48 45 44 43 43 44 46 45 44 41 39 37 36 36 35 33 33 39 54 67 67 65 62 59 57 56 56 54 54 53 52 50 48 46 45 46 46 46 46 45 43 43 42 38 36 35 35 34 34 32 30 28 28 28 28 26
71 75 77 79 82 75 66 60 51 55 66 65 63 65 65 64 63 60 59 59 59 58 57 55 53 52 50 48 48 49 50 49 47 46 45 43 41 41 42 41 42 41 39 37 36 35 33 32 35 44 58 67 67 64 62 59 58 57 57 55 54 53 51 50 48 47 46 47 47 47 48 47 44 43 41 38 37 37 37 35 34 32 30 30 29 29 28 27
69 71 72 74 80 79 71 64 53 51 65 70 69 69 67 66 66 63 61 61 59 57 57 56 54 53 53 52 51 49 48 48 47 45 43 42 41 40 40 40 40 39 38 37 37 36 33 34 38 46 58 67 67 65 62 60 58 58 57 54 53 51 49 49 48 47 47 48 49 49 50 47 44 42 40 39 40 39 38 36 35 33 32 31 30 29 29 28
67 67 69 71 77 79 75 67 54 53 67 74 71 69 68 68 68 66 64 62 62 61 60 58 55 54 53 54 53 49 48 49 48 45 43 42 41 40 39 39 39 39 38 38 37 36 35 36 40 46 57 67 68 65 62 61 59 58 56 52 50 49 48 48 48 48 49 50 50 50 51 48 45 44 42 42 42 40 38 38 36 35 34 32 30 30 30 29
66 65 66 70 77 78 72 63 54 56 68 73 71 69 69 70 70 67 66 65 65 65 62 60 59 56 53 54 54 51 50 50 50 48 46 44 42 41 40 39 39 39 39 39 38 37 36 37 41 47 56 66 69 65 62 60 57 55 53 49 48 48 47 49 48 49 51 51 51 51 52 50 47 45 44 44 44 42 40 38 37 36 35 33 31 31 30 29
65 64 65 70 76 74 65 57 53 57 67 71 70 70 70 71 71 68 69 69 68 66 64 63 62 58 55 55 55 51 50 49 49 49 48 46 44 42 41 40 39 39 39 39 37 36 37 38 42 47 54 64 69 66 61 57 53 51 49 48 49 49 48 49 50 50 52 53 53 52 52 52 50 46 45 45 45 42 40 38 37 36 35 34 33 32 31 30
63 64 65 69 72 71 65 57 53 58 70 73 70 71 72 72 72 70 70 71 69 67 65 64 63 61 57 56 54 50 49 49 47 46 45 46 45 42 41 41 40 40 40 39 36 35 36 38 42 48 54 62 67 64 59 54 50 48 47 47 49 50 49 49 50 50 52 55 55 52 52 54 52 48 46 47 45 42 40 39 39 38 36 35 33 32 31 31
62 62 64 66 67 72 70 60 54 61 72 75 71 72 75 75 74 74 74 74 70 67 66 64 64 63 59 57 53 49 50 50 47 45 44 43 42 41 41 40 40 40 40 39 37 36 36 38 42 48 54 61 65 62 57 52 48 47 47 47 49 50 49 49 50 51 53 56 56 54 53 54 54 51 48 47 44 42 41 41 40 38 36 35 33 32 32 31
62 62 66 67 65 69 70 61 56 64 72 73 73 75 77 77 76 76 77 74 70 68 67 65 64 63 59 57 54 50 49 49 47 46 45 43 42 42 42 42 41 41 41 40 39 38 38 39 42 46 52 60 63 60 56 52 50 48 48 49 49 50 49 49 51 52 54 57 57 55 55 56 57 54 50 48 45 42 42 40 39 38 38 36 35 34 33 32
62 62 65 68 67 66 67 62 59 67 72 71 73 78 79 79 78 77 75 73 71 69 67 64 64 63 59 55 54 51 49 48 47 45 43 43 43 43 43 43 43 43 42 41 41 40 40 40 42 45 51 60 63 60 56 55 53 51 50 50 50 51 51 50 52 54 56 58 57 56 57 58 59 55 50 48 45 42 41 40 39 39 38 38 37 36 35 34
63 61 60 64 68 67 65 63 64 71 75 73 76 80 80 80 80 77 74 73 72 68 64 62 61 61 60 57 55 52 48 47 47 46 44 43 42 42 42 41 41 41 40 40 41 41 41 42 42 43 49 57 62 62 60 59 57 55 53 52 51 53 53 51 52 55 57 57 56 56 57 59 60 55 51 49 45 42 42 41 40 39 38 38 38 37 36 34
61 62 60 63 68 66 64 66 69 73 76 77 80 81 81 81 78 75 73 72 70 65 63 62 60 59 59 58 56 52 49 48 47 46 46 46 44 43 42 40 39 39 38 37 38 38 39 40 40 42 47 53 61 64 62 58 55 53 52 50 50 51 51 50 50 52 54 55 54 55 57 59 59 55 51 49 47 44 43 42 41 41 40 39 39 38 37 35
61 61 62 66 68 66 67 69 72 74 77 80 83 83 83 81 76 74 73 72 69 67 64 61 59 58 58 57 55 52 51 50 49 47 47 46 44 43 42 41 39 39 39 38 39 38 38 38 38 40 44 51 58 62 59 56 54 53 52 50 50 51 50 49 49 50 52 54 55 56 58 59 58 55 51 49 49 47 45 43 42 42 41 40 39 39 37 36
64 63 64 68 69 67 69 72 72 74 77 80 84 84 82 78 75 73 72 70 68 67 64 62 60 58 58 58 56 54 52 50 49 48 48 46 44 42 41 40 39 38 38 38 39 39 39 39 39 41 44 50 57 59 57 56 55 55 55 53 51 50 49 49 49 50 51 53 56 57 57 57 56 55 52 49 49 47 46 44 43 42 41 40 40 39 39 38
67 67 68 71 71 70 70 70 71 75 77 80 83 82 79 75 72 71 70 69 68 67 64 64 63 59 58 59 58 56 54 51 50 48 47 46 45 43 42 40 38 37 37 36 36 37 36 37 38 40 43 48 55 57 56 55 54 54 55 53 49 47 47 48 49 49 51 53 56 57 56 56 56 56 53 50 48 46 45 44 43 42 42 41 41 41 41 41
68 69 71 72 72 72 70 69 73 76 78 81 81 77 75 73 72 71 69 69 68 67 64 63 63 61 60 59 57 56 55 54 52 50 48 46 43 42 41 40 38 38 37 36 36 36 35 36 37 39 42 46 51 55 55 54 52 52 53 51 48 47 48 49 49 51 52 53 55 56 56 55 55 54 52 49 47 46 45 44 43 42 42 42 42 42 42 42
71 71 73 73 72 72 72 71 75 77 79 82 80 76 74 72 71 70 69 68 67 65 63 62 61 60 60 59 57 57 57 55 53 51 49 46 44 42 41 39 38 37 37 37 37 37 36 38 39 39 41 44 49 54 57 57 55 53 52 52 50 49 48 48 48 50 50 51 53 55 55 55 53 51 49 47 46 44 44 44 43 43 43 43 43 43 43 43
72 72 74 74 71 72 73 73 76 78 79 79 77 76 74 70 68 68 68 67 65 63 62 61 60 59 58 58 57 56 56 56 54 52 49 46 45 43 42 40 39 38 38 39 39 39 38 39 40 40 42 44 47 50 54 57 56 54 54 54 53 52 50 49 49 49 50 50 52 54 55 54 51 49 47 46 44 43 43 43 42 43 44 44 44 44 44 44
72 72 74 73 70 71 74 76 76 76 76 75 75 75 73 70 68 68 67 64 63 61 59 58 59 58 57 57 56 55 55 55 54 52 50 47 44 43 41 40 39 39 41 41 41 41 41 41 42 42 42 43 45 47 49 52 53 53 53 53 52 51 49 49 49 50 50 51 52 53 54 54 51 49 47 45 44 43 42 41 41 42 43 44 44 44 44 44
71 72 73 71 69 70 74 75 75 73 74 76 76 74 72 70 68 67 66 64 62 60 58 57 57 57 57 55 54 53 53 53 52 50 48 45 42 41 39 38 38 38 40 41 41 41 41 42 43 44 43 43 43 44 45 48 50 52 53 54 53 52 51 51 51 52 52 52 52 53 56 57 52 48 48 46 44 42 40 39 40 40 41 41 42 43 43 43
71 72 71 69 68 70 73 74 75 75 76 77 76 74 71 70 68 67 66 64 62 61 59 57 56 56 55 54 53 51 50 50 49 47 44 42 41 40 38 37 37 38 40 42 42 41 41 43 44 44 45 45 44 45 46 47 49 51 53 54 56 56 55 54 54 53 52 54 54 54 59 61 54 49 49 47 45 42 39 38 38 38 38 39 40 41 41 42
71 70 69 69 71 72 73 74 75 76 77 77 75 74 72 70 68 68 67 64 62 61 59 57 56 55 54 53 52 49 47 47 47 45 44 42 40 39 38 37 37 38 40 40 40 41 43 45 45 45 47 48 48 48 48 48 49 50 52 54 56 56 55 55 55 54 54 56 56 56 61 63 56 50 50 48 46 44 42 40 39 38 39 40 41 41 42 43
70 69 69 70 72 73 73 73 73 74 76 77 76 74 72 70 68 67 66 64 61 59 58 56 55 54 53 53 51 49 47 45 44 44 44 43 41 40 39 38 38 38 38 38 40 42 45 46 46 47 48 49 47 45 43 43 46 49 50 51 53 54 55 55 55 56 57 57 57 58 61 61 55 51 51 49 48 48 46 45 45 43 43 43 44 45 46 46
70 69 70 72 73 72 72 72 72 73 74 76 76 74 72 70 68 67 66 63 60 58 56 55 54 53 53 53 51 49 47 46 45 44 42 42 42 41 41 40 39 39 39 40 42 44 46 48 48 48 49 47 45 43 42 43 45 47 47 48 50 52 53 54 56 57 57 57 59 59 59 60 57 54 54 52 50 51 50 50 50 48 46 46 47 48 49 48
69 67 65 67 69 71 71 72 72 72 71 71 72 73 72 70 68 68 67 64 61 57 55 54 53 53 53 53 52 49 47 47 47 45 44 43 41 41 42 42 41 41 41 42 44 46 48 49 49 49 49 48 48 48 48 47 46 46 46 48 49 50 52 54 55 56 55 57 60 58 57 60 59 56 55 54 53 52 52 52 52 52 51 50 49 49 49 49
65 62 60 60 63 67 70 69 68 68 69 69 69 70 70 69 68 67 67 64 60 57 55 54 53 52 52 52 51 49 48 48 47 46 46 45 44 43 43 42 43 43 43 44 46 47 48 48 48 48 48 49 50 51 50 50 49 49 50 50 50 51 53 54 54 54 54 57 58 54 54 57 55 53 54 54 54 55 54 54 54 54 54 54 52 52 52 51
62 60 60 60 61 64 68 68 66 68 70 70 70 70 69 68 66 65 65 62 59 56 55 55 54 53 53 51 50 49 49 48 48 48 47 46 45 45 45 44 44 43 44 45 45 46 47 47 47 47 47 49 51 51 50 50 50 50 51 51 52 53 54 54 54 53 54 56 53 49 52 54 50 48 50 52 54 56 56 57 57 56 56 55 54 55 55 54
64 62 62 61 61 62 66 68 68 69 72 72 72 71 69 67 65 63 62 59 56 55 54 54 53 52 52 52 50 49 47 46 46 46 45 44 44 43 44 44 43 42 43 44 45 46 46 47 47 46 46 48 49 49 50 51 51 51 51 51 51 52 54 54 53 52 54 55 50 49 53 51 43 43 46 48 50 53 56 58 59 57 57 56 55 55 55 55
63 63 61 61 63 64 65 65 66 68 72 73 72 71 69 67 64 62 59 56 54 52 52 52 52 51 51 51 50 48 45 44 42 41 39 39 37 35 36 37 37 38 40 41 43 44 44 46 47 47 48 48 46 46 48 48 50 52 53 52 52 52 53 52 51 51 53 54 52 52 53 44 37 42 46 45 48 52 55 56 55 55 55 55 54 53 52 52
62 63 63 63 64 66 65 65 66 66 67 67 67 68 68 66 64 62 59 55 53 52 50 51 51 51 51 50 48 46 43 42 41 40 39 37 35 34 34 35 35 36 36 37 39 40 41 43 43 45 46 45 44 45 45 45 49 52 50 46 47 49 51 52 52 51 51 52 53 52 47 39 40 47 48 46 50 53 54 54 53 53 53 53 54 53 51 50
Wind_Direction
212 214 214 215 216 216 218 219 220 220 220 220 220 221 219 218 217 217 217 216 217 217 217 217 219 219 218 218 219 221 223 225 226 222 220 223 226 230 230 229 227 220 214 212 211 208 207 211 213 206 200 198 198 199 200 200 200 203 203 203 205 204 203 198 195 199 206 209 202 197 188 181 178 177 181 181 178 173 165 160 161 157 150 147 143 139 136 133
209 212 213 214 215 216 217 218 219 220 220 220 220 221 219 218 217 216 217 217 217 217 217 217 219 220 220 219 219 221 223 225 225 221 219 223 226 231 233 232 234 227 216 213 211 208 208 212 214 207 201 199 198 199 200 201 200 202 203 204 206 205 202 199 199 201 205 210 207 202 193 185 181 180 182 182 180 175 169 164 163 162 156 151 148 144 141 138
207 210 211 212 214 215 217 218 219 220 220 220 219 220 220 218 216 216 216 217 217 217 217 217 218 220 221 220 221 222 223 225 226 221 219 224 226 230 234 233 237 231 217 213 212 210 210 212 213 207 203 201 199 199 200 201 200 201 203 205 207 206 201 197 201 204 204 209 209 204 196 189 186 184 185 184 180 175 173 168 165 166 161 156 153 149 145 143
207 207 208 210 210 211 214 217 219 221 221 220 219 219 219 218 216 215 215 217 217 217 216 216 217 219 221 220 222 223 223 225 225 220 219 223 226 230 234 233 238 234 218 213 211 211 212 212 212 207 203 203 202 201 200 200 200 201 203 206 208 206 201 198 203 204 203 210 210 204 198 193 190 188 187 184 181 176 174 169 167 170 165 162 159 153 150 147
206 207 206 207 209 210 213 217 219 220 221 220 220 219 219 218 216 215 214 216 217 217 216 216 217 219 221 220 221 224 223 224 221 218 219 221 225 230 234 233 236 236 220 214 212 211 213 213 214 211 204 203 204 203 201 200 201 202 203 207 207 205 203 202 204 203 204 211 211 206 201 196 192 190 189 185 180 175 173 172 170 175 173 168 165 159 155 152
203 207 206 206 206 208 212 218 220 220 221 221 220 220 219 217 216 214 213 216 217 217 216 216 217 218 221 220 221 223 223 223 219 217 221 221 225 230 234 233 234 236 222 214 213 212 213 214 215 213 206 202 203 204 203 202 202 203 205 208 206 205 205 205 205 203 206 213 211 207 204 198 194 192 192 186 180 175 176 178 176 179 178 172 169 165 161 157
198 204 207 206 205 205 207 213 219 221 221 221 220 219 218 217 216 214 212 215 217 217 216 215 216 218 221 221 220 223 223 223 220 218 222 222 223 228 233 235 234 236 225 214 213 213 214 213 214 212 207 204 202 203 204 204 204 205 207 208 206 205 207 206 205 204 207 214 212 208 205 199 196 195 193 187 183 181 181 183 181 181 179 175 173 168 165 162
196 202 205 207 205 205 205 208 214 219 219 219 218 218 217 216 215 213 211 213 216 217 216 215 216 217 221 221 220 223 223 224 223 220 222 223 223 227 232 235 235 235 230 218 213 213 212 212 213 211 206 206 203 201 204 205 205 206 209 209 206 207 208 207 207 206 207 213 214 209 206 202 198 198 193 188 188 188 185 186 184 181 179 177 176 173 170 167
196 200 202 205 205 203 204 206 211 216 217 217 216 216 216 214 213 212 210 212 215 216 215 215 216 217 220 221 219 223 223 223 224 221 222 223 223 227 230 233 235 234 234 225 215 211 209 210 214 211 205 206 204 202 204 205 206 207 210 210 208 208 209 207 208 209 208 212 214 210 208 205 200 200 195 190 195 193 187 188 188 183 180 180 179 178 176 174
196 197 199 204 205 203 204 206 210 214 215 215 213 213 214 212 211 211 210 211 213 214 214 214 215 216 219 221 219 221 223 223 224 222 222 224 223 226 230 232 235 234 236 231 218 211 208 210 214 211 205 205 204 203 204 204 205 207 209 210 209 209 208 207 209 211 210 212 213 211 210 206 202 202 197 194 201 198 189 189 192 188 183 184 184 183 181 179
194 194 198 203 203 202 203 205 210 213 212 213 211 210 211 210 209 210 210 211 212 212 213 214 214 215 217 220 219 219 222 224 225 223 221 224 224 226 229 231 235 234 237 233 219 211 210 212 215 212 206 204 202 204 205 204 204 206 208 208 209 209 208 208 211 211 210 212 213 212 211 207 203 205 201 200 204 200 193 192 194 192 186 187 189 188 187 184
192 192 198 202 200 202 204 203 210 213 211 211 210 209 209 207 207 209 209 209 210 211 212 213 214 213 214 218 217 215 219 222 223 221 220 223 224 226 229 231 233 234 236 232 219 212 211 212 215 214 209 203 201 203 205 204 206 207 207 207 208 209 208 209 213 212 211 212 211 212 212 207 204 208 205 203 206 201 196 195 195 196 192 191 192 192 193 191
192 190 195 199 197 201 204 203 208 213 212 212 209 207 206 205 205 207 208 209 209 210 212 212 213 212 214 218 216 214 216 220 222 221 219 222 224 226 229 230 231 232 233 229 218 213 212 212 214 216 211 204 200 203 204 204 208 210 208 207 208 209 207 208 213 213 212 213 211 212 212 208 208 210 206 205 208 202 199 200 197 197 196 196 197 197 198 196
195 188 191 195 194 195 199 203 207 209 210 211 208 205 204 203 204 205 206 207 207 208 212 212 213 213 214 216 214 215 217 219 223 222 219 222 224 226 227 227 228 228 227 226 220 216 213 211 214 216 212 203 200 202 203 204 208 210 209 208 209 210 207 208 212 212 213 214 212 212 211 209 211 212 207 208 210 205 203 204 200 199 199 200 202 201 201 200
202 190 188 192 193 189 191 200 208 207 205 207 204 201 202 202 202 204 204 205 205 205 210 213 213 214 215 214 211 214 217 219 223 222 218 221 223 224 225 223 224 222 220 221 221 218 215 212 213 216 212 203 201 202 203 204 208 210 210 210 212 212 209 209 212 212 212 213 212 212 211 211 213 212 210 210 212 209 208 208 205 203 204 205 207 207 205 205
208 195 188 192 194 190 189 196 208 210 205 202 201 199 201 201 202 202 203 204 202 201 207 211 213 214 215 214 212 213 216 219 222 221 217 219 221 222 222 221 221 221 220 221 223 220 215 213 213 217 213 204 201 203 203 205 207 208 210 212 214 214 212 212 213 213 213 214 213 212 211 213 215 214 214 214 214 212 210 211 209 208 208 209 211 212 210 210
212 201 192 192 195 194 193 194 202 208 206 200 198 198 200 201 201 201 201 203 201 199 203 208 211 212 212 214 214 215 218 220 223 222 218 218 219 219 220 222 224 226 228 231 232 225 217 214 214 217 215 206 202 203 204 205 207 208 209 211 213 214 214 214 215 215 215 215 216 214 213 214 215 216 216 217 217 215 213 213 213 212 213 213 215 217 216 216
216 209 202 195 193 195 196 193 196 204 205 202 198 198 201 201 200 201 201 202 201 198 200 205 208 209 211 213 215 217 220 222 223 221 218 219 221 220 221 226 228 230 234 236 236 232 222 215 215 218 216 208 203 204 204 205 208 209 210 211 213 214 214 214 215 216 216 217 217 217 216 215 216 217 218 219 220 218 216 215 215 216 217 217 219 220 221 221
219 215 211 202 193 194 197 196 201 205 205 203 199 198 201 201 200 201 201 202 201 200 201 205 209 213 214 213 214 215 217 222 223 220 218 219 222 223 223 225 229 230 233 234 234 234 226 219 217 218 218 212 205 204 205 206 208 209 211 212 213 215 216 216 216 216 216 217 217 217 217 217 217 219 219 220 221 220 218 216 216 218 220 221 222 222 223 224
220 218 216 209 199 196 199 200 205 208 206 203 199 199 201 201 199 200 201 201 202 203 205 207 210 213 213 211 211 211 212 217 222 221 218 219 221 224 223 223 226 228 230 231 231 232 229 223 220 219 220 215 206 204 205 207 208 209 211 212 214 216 216 218 219 219 218 218 219 218 218 218 219 220 219 221 223 221 219 219 219 220 222 223 225 226 226 227
219 219 218 214 207 202 201 200 204 207 205 203 201 201 204 205 205 207 206 202 201 203 204 205 209 209 207 208 210 212 215 219 222 221 219 219 222 224 224 224 225 226 228 230 230 231 231 225 221 221 221 214 206 204 205 208 209 210 211 211 212 215 215 217 218 219 219 218 219 220 219 219 221 222 221 222 224 224 222 222 223 223 224 225 227 229 229 231
219 220 220 217 213 207 202 201 203 206 204 202 201 200 203 206 208 210 209 204 201 201 200 200 204 206 204 204 206 209 215 220 221 220 219 219 222 224 226 225 225 226 228 229 229 231 232 227 222 223 220 211 204 203 205 207 209 211 212 211 211 214 214 216 218 218 219 219 219 220 220 219 220 223 222 221 223 225 224 224 226 226 225 226 227 230 231 232
219 220 221 219 216 210 206 205 205 205 204 202 199 198 201 203 204 203 204 204 203 202 199 195 198 203 202 201 203 205 210 215 218 219 220 220 221 224 227 226 225 226 227 228 229 231 232 229 225 224 217 208 203 203 205 207 209 211 212 211 212 214 214 215 217 217 218 219 220 221 221 220 220 222 223 222 221 225 226 225 227 227 226 227 228 231 233 234
219 220 221 221 219 213 212 212 210 207 203 199 198 198 199 201 201 200 200 203 203 203 201 196 197 200 199 200 205 208 210 214 217 218 220 222 223 225 228 229 227 226 227 228 228 228 230 228 225 222 215 206 201 202 205 207 209 211 212 212 212 214 214 215 217 217 217 219 221 222 223 221 221 223 224 224 223 224 226 226 227 229 227 228 229 232 235 236
218 219 219 220 219 216 216 216 214 209 201 198 197 197 198 199 199 199 199 201 200 200 201 198 198 199 197 199 207 210 211 214 217 217 219 222 225 228 230 231 228 227 227 228 229 227 227 227 225 223 215 206 201 202 205 207 209 211 212 211 212 213 214 215 217 217 218 219 220 223 225 222 222 223 224 226 226 224 226 228 228 230 229 228 230 232 235 237
216 217 218 219 219 218 218 216 215 210 200 197 198 197 197 197 198 197 197 200 200 199 200 198 199 200 199 202 207 208 208 212 215 216 217 220 223 226 229 230 228 228 229 228 228 227 226 226 226 224 215 207 202 202 204 206 209 212 212 210 211 213 214 215 217 218 219 220 220 223 226 223 220 223 222 224 227 226 225 228 229 231 231 230 230 232 235 237
213 214 215 218 218 217 217 214 213 208 199 197 198 197 196 196 198 196 196 199 200 199 199 198 199 201 203 205 208 208 208 211 215 215 216 220 223 224 226 228 227 228 230 228 227 226 226 227 227 225 216 208 204 203 204 207 209 212 212 209 210 212 214 215 216 218 220 221 221 222 226 225 220 221 223 223 226 227 225 226 228 230 233 232 231 231 233 235
209 211 212 216 218 218 217 214 211 204 198 199 198 197 196 196 197 196 197 200 200 198 198 198 200 201 203 206 207 207 207 211 215 215 216 219 222 224 225 226 226 227 229 228 227 226 225 226 226 225 219 210 206 204 205 207 210 212 212 210 210 212 213 214 215 217 220 222 222 222 225 227 221 219 224 224 225 227 226 226 227 228 231 232 232 231 232 233
207 209 211 214 216 217 216 213 210 203 198 199 198 196 196 196 197 196 198 202 200 198 198 199 200 202 203 203 205 206 206 209 212 213 216 219 220 222 223 224 225 225 226 226 227 227 226 225 224 224 219 212 207 205 205 207 210 212 212 211 211 213 215 215 216 218 220 222 224 223 225 228 225 219 223 226 225 226 227 228 229 228 228 230 233 235 235 235
204 207 209 211 213 214 212 209 208 204 200 199 197 196 195 196 197 197 199 202 200 198 199 199 200 203 204 202 203 206 207 209 212 211 214 218 220 221 221 222 222 224 225 224 223 224 224 224 223 224 221 213 207 206 206 207 210 212 213 212 213 215 216 217 218 220 222 223 224 225 226 229 227 221 221 225 225 224 226 229 230 230 229 230 232 236 239 240
202 205 207 209 210 212 212 210 207 202 200 200 197 194 195 197 197 199 200 201 199 199 199 198 199 202 204 203 203 206 207 209 212 213 214 216 218 220 221 221 221 222 223 223 223 222 221 221 221 222 221 215 208 207 208 207 210 212 213 213 213 216 218 218 219 220 223 224 224 225 227 229 229 224 221 224 225 225 226 228 231 232 233 233 233 235 239 241
200 203 207 210 212 213 212 212 207 200 199 200 197 195 196 197 198 200 201 200 200 200 198 198 199 200 203 204 205 207 209 210 211 214 217 219 221 222 223 223 224 224 224 224 224 223 222 222 221 221 220 216 210 208 208 208 210 212 214 214 214 217 219 219 220 221 223 225 225 225 227 229 230 227 224 224 225 226 227 228 230 233 235 236 237 237 239 241
200 202 204 209 212 213 212 211 206 200 198 198 197 196 197 199 200 200 200 201 201 199 198 199 200 201 204 205 205 206 208 210 212 213 214 217 221 223 225 225 226 227 228 229 228 226 223 223 223 221 219 217 213 211 210 210 210 213 214 215 216 218 220 220 221 221 223 225 226 227 228 230 231 229 227 226 227 228 228 228 230 233 235 237 239 240 241 243
200 201 202 206 210 210 210 208 204 200 197 195 196 196 198 201 201 200 201 202 201 199 198 199 200 201 204 206 207 207 207 209 212 214 215 215 217 220 223 224 225 227 228 231 234 235 233 231 229 225 220 218 215 213 213 212 213 215 216 218 220 222 224 224 224 224 225 227 229 230 230 230 231 231 229 229 231 230 229 230 230 232 234 236 239 241 243 245
198 200 202 205 207 208 208 204 199 197 196 195 195 197 199 201 201 201 202 201 201 200 198 199 201 202 203 205 206 207 208 209 211 213 216 218 219 221 223 223 223 225 225 225 229 232 234 236 235 230 224 219 215 214 214 213 214 216 217 219 221 223 226 227 228 227 228 229 230 231 231 231 232 233 231 230 233 234 233 232 232 232 235 237 240 242 245 246
196 198 201 204 206 207 204 198 194 194 196 196 196 197 200 202 202 203 204 202 201 201 199 198 201 203 203 204 204 205 208 210 212 213 213 215 219 221 223 224 225 226 227 227 228 229 229 230 229 227 226 221 216 215 215 215 216 218 219 220 221 224 227 230 231 230 230 232 232 231 232 233 234 236 234 232 233 236 237 237 236 236 237 238 241 243 246 248
196 199 200 203 206 206 200 195 193 194 195 197 198 199 200 202 204 204 205 204 203 202 200 200 200 201 204 205 205 205 206 208 211 214 215 215 216 217 218 222 224 227 229 230 231 233 233 232 230 227 225 223 219 217 217 217 218 220 221 222 223 227 229 231 233 234 233 234 233 232 233 234 236 237 236 235 235 237 239 241 241 241 241 241 241 243 246 248
198 200 201 203 206 203 197 193 193 194 195 196 199 201 201 201 203 205 205 205 205 203 202 203 202 201 202 206 207 207 208 209 209 210 212 215 216 217 218 220 222 224 226 227 229 231 231 232 232 230 227 226 223 221 220 220 221 222 223 224 225 228 230 231 235 236 236 236 235 234 235 235 236 237 238 239 239 239 240 242 244 245 245 244 244 245 246 247
197 198 200 203 203 197 192 192 193 193 195 196 197 200 201 202 203 205 206 206 207 205 203 204 204 203 203 204 206 208 208 210 211 210 211 212 213 215 217 220 222 225 226 226 226 227 227 229 230 230 229 228 227 225 224 223 223 224 225 226 227 228 229 232 235 237 238 240 239 238 238 237 237 238 240 242 242 242 242 242 244 246 247 247 248 248 248 249
197 199 200 203 201 192 187 190 192 194 196 197 198 199 200 203 205 206 207 207 208 208 205 204 205 206 207 205 206 209 210 211 211 211 212 212 212 212 214 217 220 223 226 226 225 225 224 227 229 229 228 229 230 230 228 227 226 227 228 229 229 230 231 232 234 236 239 241 241 241 240 238 238 240 241 243 244 244 244 244 245 246 248 249 250 251 252 252
198 200 200 200 197 190 187 190 193 196 198 198 199 200 200 202 205 207 209 209 209 210 208 206 206 207 209 209 209 209 211 213 214 213 213 213 214 214 215 217 219 221 224 226 225 224 223 223 226 229 229 231 233 233 232 231 230 230 231 232 233 234 235 236 236 237 239 242 244 245 244 240 239 240 241 243 245 245 246 246 246 247 248 249 251 253 254 256
199 201 200 199 197 193 191 194 197 199 200 198 198 199 201 203 204 207 209 209 210 210 209 209 209 210 211 212 213 214 214 214 215 215 216 215 216 218 219 221 222 223 226 228 227 226 224 224 225 226 228 230 232 234 234 234 234 233 233 233 234 235 236 237 238 237 239 242 243 246 245 241 239 241 242 243 244 245 246 247 247 248 249 251 252 254 255 257
199 199 198 197 198 196 194 196 198 198 198 198 198 199 201 204 205 206 208 209 209 210 208 208 209 210 212 213 215 217 218 218 218 217 218 218 219 221 222 223 225 225 227 228 229 229 227 227 227 227 228 229 230 232 233 234 235 235 235 235 236 237 238 239 240 239 240 241 242 245 245 241 239 242 244 245 246 246 247 248 249 250 251 253 255 255 257 258
198 196 195 194 194 194 195 197 199 200 198 197 198 199 201 204 206 207 209 208 209 209 208 206 207 208 210 213 215 216 218 220 221 220 220 221 222 224 225 224 225 227 229 230 233 232 230 228 228 228 228 229 229 231 233 235 237 237 238 237 238 239 240 241 243 242 243 243 243 246 246 243 243 246 247 249 250 250 251 252 253 255 256 257 257 257 258 259
197 192 192 193 193 194 196 198 202 203 200 197 198 200 201 203 206 208 209 209 209 209 208 206 206 207 209 212 214 215 216 218 220 222 222 221 220 223 226 225 225 227 230 233 234 235 234 232 231 231 232 233 235 238 242 243 243 242 242 241 241 241 242 243 244 244 245 245 245 247 247 246 247 249 251 252 254 254 255 255 255 256 256 257 257 257 258 258
196 194 192 191 191 195 197 198 200 202 201 199 199 200 201 203 206 207 210 210 209 209 209 207 207 209 210 211 212 213 213 214 216 218 221 222 221 221 223 224 224 224 226 229 231 232 233 234 233 234 236 240 243 247 249 248 248 248 248 248 247 246 246 245 245 246 248 249 249 249 250 248 247 249 252 254 255 255 256 256 256 256 255 253 254 255 256 257
196 199 202 199 195 196 198 199 200 201 202 203 202 202 203 204 206 208 209 210 209 208 208 208 208 209 210 210 211 211 211 213 214 214 215 218 219 221 222 223 223 223 224 227 230 231 232 233 233 233 235 238 240 241 241 242 244 246 247 247 247 247 247 247 247 249 250 251 251 250 251 250 248 248 252 254 255 255 255 255 255 255 255 254 255 255 256 257
197 200 205 209 206 203 201 203 205 203 202 204 206 207 206 205 207 209 210 210 209 208 207 207 208 209 211 212 212 211 210 211 213 214 214 215 215 216 219 221 222 221 221 224 229 231 233 234 234 235 235 236 237 238 239 239 241 242 243 244 245 245 246 247 248 250 250 252 254 255 255 254 251 250 252 254 255 255 255 256 256 256 256 257 259 260 260 260
201 201 201 205 209 208 205 204 205 204 202 202 205 208 209 209 209 211 212 212 210 208 207 206 207 208 210 211 213 213 212 211 212 213 214 215 215 214 215 217 219 219 220 222 226 230 233 234 235 236 237 237 238 238 239 239 239 240 241 243 244 245 246 248 250 252 253 255 258 258 258 257 255 255 254 254 255 256 257 258 258 258 257 257 258 260 261 261
202 203 202 203 205 207 207 204 203 203 201 202 205 207 208 210 212 213 214 213 212 211 209 207 208 209 211 212 212 212 212 213 215 216 216 217 218 218 217 218 219 219 220 221 223 226 230 233 235 236 237 238 238 239 239 240 240 239 239 240 242 243 245 247 251 254 255 257 259 259 259 258 257 258 259 258 258 259 258 257 257 257 257 258 258 259 259 260
204 204 206 206 204 204 206 205 204 204 203 203 205 206 207 209 211 214 215 214 214 214 213 211 210 209 211 213 214 213 212 212 214 217 219 221 222 224 226 226 226 226 226 226 226 227 229 233 235 237 239 239 240 242 242 242 242 241 240 239 241 244 246 249 252 253 253 255 257 258 259 258 258 260 261 260 260 260 258 258 258 258 259 260 261 260 259 258
205 205 205 206 205 204 204 204 205 206 206 207 208 208 208 208 209 212 213 213 212 212 212 214 213 211 211 213 214 214 212 210 211 213 215 219 222 224 225 225 226 229 230 231 231 232 233 235 238 241 243 243 243 245 246 245 244 243 243 245 248 249 251 252 253 253 254 255 256 258 261 262 261 260 259 257 258 259 259 260 259 259 260 261 262 261 259 258
Height
5657 5663 5667 5672 5677 5680 5685 5690 5694 5698 5703 5708 5713 5717 5722 5726 5731 5735 5740 5744 5749 5753 5757 5761 5764 5768 5772 5775 5779 5783 5785 5788 5792 5795 5798 5800 5802 5804 5806 5809 5812 5816 5819 5822 5826 5829 5832 5834 5835 5837 5840 5842 5845 5848 5850 5852 5853 5856 5859 5861 5863 5865 5866 5869 5871 5873 5875 5876 5877 5877 5877 5877 5878 5879 5881 5883 5884 5885 5885 5886 5887 5888 5889 5889 5890 5890 5891 5892
5649 5656 5661 5666 5671 5676 5681 5686 5690 5694 5698 5703 5708 5713 5718 5723 5727 5731 5736 5741 5745 5749 5754 5758 5761 5764 5768 5772 5776 5779 5782 5785 5789 5793 5796 5798 5799 5801 5803 5806 5809 5812 5816 5819 5822 5825 5829 5832 5834 5836 5839 5841 5843 5845 5848 5850 5852 5854 5858 5860 5861 5862 5865 5868 5871 5872 5874 5876 5877 5877 5877 5877 5878 5879 5881 5882 5883 5884 5885 5886 5887 5888 5889 5889 5890 5890 5891 5892
5644 5650 5655 5661 5667 5673 5678 5681 5685 5690 5694 5699 5704 5709 5714 5719 5723 5728 5732 5737 5741 5746 5750 5755 5758 5761 5764 5768 5772 5775 5779 5782 5786 5791 5794 5795 5796 5798 5800 5803 5806 5809 5812 5816 5819 5823 5827 5830 5832 5834 5837 5840 5841 5842 5845 5847 5850 5853 5856 5858 5858 5861 5864 5868 5869 5871 5873 5875 5876 5877 5877 5877 5878 5879 5881 5881 5882 5884 5885 5886 5887 5888 5889 5889 5890 5890 5891 5892
5639 5643 5650 5656 5662 5668 5672 5676 5681 5685 5689 5694 5699 5705 5710 5715 5720 5724 5729 5733 5738 5743 5747 5751 5754 5757 5761 5765 5769 5772 5776 5779 5783 5788 5790 5791 5793 5796 5798 5801 5804 5807 5810 5813 5817 5821 5824 5827 5829 5832 5836 5839 5840 5841 5843 5846 5848 5850 5853 5855 5856 5859 5863 5866 5867 5870 5872 5874 5875 5876 5876 5876 5877 5878 5880 5881 5882 5883 5884 5886 5887 5888 5889 5890 5890 5891 5891 5892
5633 5638 5644 5651 5658 5663 5668 5672 5676 5681 5685 5690 5696 5701 5706 5711 5716 5721 5726 5730 5735 5740 5744 5748 5751 5754 5757 5762 5766 5770 5773 5776 5781 5784 5784 5787 5791 5793 5797 5800 5803 5805 5807 5810 5814 5818 5822 5825 5826 5830 5833 5836 5839 5841 5843 5845 5846 5848 5851 5852 5854 5859 5862 5865 5867 5869 5871 5872 5874 5876 5875 5875 5876 5878 5880 5880 5882 5883 5884 5885 5886 5888 5888 5889 5890 5891 5891 5892
5628 5635 5641 5647 5653 5659 5665 5669 5673 5677 5682 5686 5692 5697 5702 5707 5712 5718 5723 5727 5732 5736 5741 5745 5748 5751 5754 5758 5762 5766 5770 5773 5778 5779 5780 5784 5788 5791 5794 5797 5801 5803 5805 5808 5811 5814 5819 5822 5824 5827 5831 5833 5837 5841 5843 5844 5845 5847 5849 5850 5854 5859 5861 5863 5866 5869 5870 5871 5873 5875 5874 5875 5876 5878 5879 5880 5881 5882 5883 5884 5885 5886 5888 5889 5890 5890 5891 5892
5623 5630 5637 5643 5649 5655 5661 5665 5669 5674 5678 5682 5688 5693 5698 5704 5709 5714 5719 5724 5728 5733 5738 5741 5744 5747 5751 5755 5759 5763 5767 5770 5773 5775 5777 5782 5786 5788 5791 5795 5798 5800 5802 5805 5806 5810 5815 5819 5821 5824 5829 5832 5835 5839 5842 5843 5844 5846 5847 5850 5854 5857 5859 5862 5865 5867 5869 5870 5871 5873 5873 5874 5875 5877 5878 5880 5881 5882 5882 5882 5883 5884 5886 5888 5890 5890 5891 5891
5617 5625 5633 5640 5646 5652 5657 5661 5664 5669 5674 5679 5683 5688 5695 5700 5706 5711 5716 5720 5725 5730 5735 5738 5741 5744 5747 5752 5757 5760 5764 5766 5769 5773 5775 5779 5783 5786 5789 5792 5795 5797 5799 5801 5803 5807 5812 5817 5819 5821 5826 5830 5833 5836 5838 5840 5842 5844 5846 5849 5853 5855 5858 5861 5863 5865 5867 5868 5869 5872 5873 5873 5874 5876 5878 5879 5880 5880 5881 5881 5882 5883 5885 5887 5889 5890 5890 5891
5612 5620 5628 5634 5641 5647 5652 5656 5660 5664 5670 5675 5679 5684 5690 5696 5702 5707 5712 5717 5722 5727 5731 5734 5737 5741 5745 5749 5754 5758 5762 5764 5765 5770 5773 5776 5781 5783 5786 5789 5792 5793 5796 5798 5800 5804 5810 5814 5815 5817 5822 5826 5830 5833 5834 5836 5840 5843 5845 5848 5851 5854 5856 5859 5861 5863 5865 5866 5868 5870 5872 5872 5874 5875 5877 5879 5879 5879 5881 5881 5882 5883 5885 5886 5888 5889 5889 5890
5607 5614 5622 5629 5635 5642 5648 5652 5657 5661 5666 5671 5675 5681 5686 5693 5699 5704 5709 5714 5719 5724 5727 5730 5733 5738 5742 5746 5751 5756 5759 5759 5762 5766 5770 5774 5778 5780 5783 5786 5788 5790 5792 5795 5798 5803 5807 5810 5810 5813 5818 5822 5827 5829 5830 5833 5837 5840 5843 5846 5849 5851 5854 5856 5858 5861 5863 5865 5866 5869 5870 5871 5873 5874 5876 5878 5877 5878 5880 5881 5882 5882 5884 5886 5887 5888 5889 5890
5602 5610 5617 5624 5631 5638 5643 5649 5654 5657 5662 5667 5672 5677 5683 5689 5695 5700 5706 5711 5716 5720 5723 5726 5730 5736 5740 5743 5749 5754 5754 5755 5759 5763 5767 5771 5775 5777 5780 5783 5785 5787 5789 5792 5796 5800 5803 5805 5807 5810 5813 5817 5822 5825 5828 5831 5834 5836 5839 5842 5845 5848 5851 5854 5856 5858 5860 5862 5865 5867 5868 5870 5872 5873 5874 5875 5876 5877 5879 5881 5881 5882 5883 5884 5886 5887 5888 5889
5597 5605 5612 5619 5627 5633 5639 5646 5651 5653 5659 5664 5669 5674 5680 5686 5692 5697 5702 5707 5713 5716 5719 5722 5727 5732 5736 5739 5745 5749 5750 5752 5756 5759 5763 5767 5771 5775 5778 5780 5782 5784 5786 5789 5792 5795 5797 5799 5805 5808 5810 5813 5818 5822 5825 5830 5832 5833 5835 5839 5843 5845 5849 5851 5853 5855 5858 5860 5862 5864 5865 5868 5870 5870 5872 5873 5874 5876 5878 5879 5880 5881 5882 5883 5885 5886 5887 5888
5592 5600 5607 5615 5623 5628 5635 5643 5646 5649 5655 5660 5664 5671 5677 5683 5688 5693 5699 5704 5709 5713 5716 5719 5724 5728 5731 5735 5741 5744 5747 5749 5752 5756 5761 5764 5768 5772 5775 5777 5779 5781 5783 5786 5788 5790 5792 5796 5802 5805 5807 5810 5814 5817 5822 5827 5829 5830 5834 5838 5840 5842 5845 5847 5849 5853 5856 5857 5860 5862 5864 5867 5868 5868 5870 5872 5873 5875 5877 5878 5879 5880 5881 5882 5883 5884 5885 5886
5588 5595 5602 5611 5618 5622 5630 5638 5642 5644 5650 5655 5661 5667 5673 5679 5684 5689 5695 5700 5705 5710 5712 5715 5720 5724 5728 5732 5737 5741 5744 5746 5749 5754 5758 5762 5765 5769 5772 5774 5776 5778 5781 5782 5784 5786 5789 5794 5798 5801 5803 5807 5810 5814 5819 5823 5825 5829 5833 5836 5836 5838 5841 5844 5846 5850 5853 5855 5858 5860 5862 5865 5865 5866 5869 5871 5872 5874 5875 5876 5878 5879 5880 5881 5882 5883 5884 5885
5584 5591 5598 5607 5614 5617 5625 5634 5638 5641 5645 5651 5657 5663 5669 5675 5680 5685 5691 5696 5702 5706 5709 5713 5717 5721 5725 5730 5734 5737 5741 5744 5747 5751 5755 5759 5761 5765 5768 5771 5773 5775 5777 5779 5781 5784 5787 5790 5794 5797 5800 5803 5807 5811 5815 5819 5822 5827 5831 5833 5834 5836 5839 5841 5844 5847 5850 5852 5855 5858 5860 5862 5863 5866 5868 5869 5871 5873 5874 5875 5877 5878 5879 5880 5881 5882 5883 5884
5580 5587 5594 5603 5609 5614 5621 5630 5634 5637 5642 5647 5653 5659 5665 5670 5675 5681 5686 5691 5696 5702 5706 5710 5714 5720 5724 5726 5730 5735 5739 5741 5743 5748 5753 5756 5758 5761 5765 5768 5770 5772 5774 5776 5778 5781 5784 5787 5791 5794 5797 5800 5803 5808 5812 5816 5819 5823 5828 5830 5832 5835 5837 5839 5842 5845 5848 5850 5853 5856 5859 5860 5862 5865 5867 5869 5870 5871 5873 5874 5876 5877 5878 5879 5880 5882 5883 5883
5575 5583 5590 5598 5604 5611 5617 5623 5629 5633 5638 5643 5648 5655 5660 5666 5671 5676 5681 5685 5691 5699 5703 5707 5712 5717 5720 5723 5729 5734 5736 5738 5741 5746 5750 5753 5755 5759 5762 5765 5767 5769 5771 5773 5776 5779 5782 5785 5788 5791 5794 5797 5800 5804 5808 5813 5816 5820 5823 5826 5829 5832 5835 5838 5840 5844 5847 5849 5853 5856 5857 5859 5861 5863 5865 5867 5868 5869 5871 5872 5874 5876 5877 5878 5880 5881 5882 5882
5571 5579 5586 5593 5600 5607 5612 5617 5623 5627 5633 5639 5643 5650 5655 5660 5666 5671 5676 5682 5689 5696 5699 5704 5708 5712 5715 5723 5729 5732 5734 5736 5738 5742 5746 5749 5752 5756 5759 5761 5763 5766 5768 5770 5774 5777 5779 5782 5785 5788 5791 5794 5798 5802 5806 5811 5815 5817 5819 5822 5825 5828 5831 5835 5838 5842 5845 5849 5852 5854 5855 5857 5860 5861 5863 5865 5866 5867 5869 5871 5873 5874 5875 5877 5878 5880 5881 5881
5566 5574 5582 5589 5595 5603 5607 5612 5618 5621 5626 5632 5637 5644 5649 5655 5661 5667 5673 5680 5687 5691 5695 5702 5706 5710 5718 5725 5727 5728 5731 5732 5732 5737 5741 5745 5748 5751 5756 5759 5761 5763 5765 5768 5771 5774 5777 5779 5781 5784 5789 5793 5797 5801 5805 5809 5812 5814 5817 5821 5823 5827 5831 5835 5838 5841 5844 5846 5848 5851 5853 5856 5857 5858 5860 5862 5863 5864 5866 5869 5871 5873 5874 5875 5877 5878 5879 5880
5562 5570 5578 5584 5590 5597 5602 5607 5613 5616 5621 5627 5632 5638 5643 5650 5657 5663 5672 5682 5689 5694 5699 5704 5706 5711 5718 5720 5721 5724 5728 5728 5728 5733 5737 5741 5744 5747 5751 5756 5758 5760 5763 5765 5769 5772 5774 5776 5779 5784 5789 5792 5795 5798 5802 5805 5808 5810 5813 5818 5821 5825 5830 5834 5836 5839 5841 5843 5846 5849 5851 5852 5853 5855 5857 5858 5860 5862 5865 5868 5869 5871 5872 5874 5875 5876 5878 5878
5559 5565 5572 5580 5586 5592 5597 5603 5609 5614 5621 5628 5634 5639 5646 5654 5659 5666 5675 5681 5686 5691 5698 5702 5704 5710 5714 5716 5718 5722 5725 5725 5726 5729 5733 5737 5740 5743 5747 5752 5755 5758 5760 5763 5765 5768 5771 5774 5779 5784 5786 5788 5791 5794 5798 5801 5804 5807 5809 5814 5818 5822 5826 5830 5833 5835 5838 5841 5844 5846 5848 5849 5850 5852 5854 5856 5858 5862 5864 5866 5867 5868 5870 5872 5873 5875 5876 5877
5554 5561 5567 5576 5582 5589 5595 5601 5607 5613 5620 5627 5634 5642 5650 5657 5664 5673 5678 5679 5679 5682 5687 5693 5699 5705 5708 5712 5716 5719 5722 5722 5723 5726 5730 5734 5738 5741 5744 5749 5753 5755 5757 5759 5762 5765 5769 5773 5777 5779 5781 5783 5786 5790 5793 5797 5800 5802 5806 5810 5814 5817 5821 5826 5829 5832 5835 5838 5840 5842 5844 5846 5847 5849 5851 5854 5857 5860 5862 5863 5864 5865 5867 5869 5871 5872 5874 5875
5549 5556 5563 5571 5579 5586 5592 5598 5605 5611 5617 5626 5635 5641 5648 5656 5664 5670 5674 5676 5676 5677 5681 5686 5692 5698 5703 5707 5711 5715 5717 5718 5720 5724 5728 5733 5736 5739 5741 5745 5749 5752 5754 5756 5759 5762 5766 5770 5773 5773 5774 5777 5781 5785 5789 5792 5796 5798 5802 5807 5810 5813 5818 5822 5826 5830 5832 5834 5836 5838 5840 5842 5844 5846 5848 5852 5856 5857 5858 5860 5861 5862 5865 5867 5868 5869 5871 5873
5545 5552 5560 5568 5576 5583 5590 5596 5602 5608 5616 5625 5631 5636 5644 5653 5659 5664 5668 5671 5674 5679 5683 5685 5689 5693 5698 5704 5708 5711 5713 5715 5719 5722 5726 5730 5733 5736 5739 5742 5746 5749 5751 5754 5756 5759 5763 5766 5768 5767 5769 5772 5776 5780 5784 5788 5792 5795 5799 5804 5808 5811 5816 5820 5824 5827 5829 5831 5833 5835 5836 5838 5842 5844 5847 5851 5853 5854 5855 5857 5858 5860 5862 5863 5865 5867 5869 5870
5542 5549 5556 5564 5571 5580 5587 5592 5599 5607 5615 5620 5624 5631 5640 5648 5652 5658 5663 5665 5670 5676 5679 5682 5685 5687 5691 5698 5703 5705 5709 5712 5715 5718 5723 5727 5730 5733 5736 5739 5742 5746 5749 5751 5753 5755 5759 5762 5763 5763 5765 5768 5772 5776 5781 5785 5789 5791 5795 5801 5806 5809 5813 5817 5820 5823 5825 5827 5829 5831 5831 5836 5840 5842 5845 5848 5848 5851 5853 5854 5856 5858 5859 5861 5863 5864 5865 5867
5539 5546 5553 5560 5568 5575 5580 5588 5597 5604 5609 5615 5621 5630 5638 5643 5646 5652 5657 5660 5665 5668 5672 5679 5684 5685 5688 5693 5697 5699 5703 5707 5710 5714 5719 5722 5726 5730 5732 5736 5740 5743 5745 5747 5749 5752 5756 5759 5760 5761 5763 5766 5769 5773 5777 5782 5785 5788 5793 5799 5804 5807 5810 5814 5817 5820 5821 5823 5826 5827 5828 5832 5837 5838 5841 5843 5844 5848 5851 5852 5854 5855 5856 5859 5860 5861 5862 5864
5536 5543 5550 5556 5564 5572 5579 5589 5596 5600 5607 5614 5620 5627 5633 5637 5641 5647 5651 5654 5656 5661 5668 5675 5679 5684 5688 5691 5693 5696 5699 5703 5706 5711 5715 5719 5723 5726 5729 5733 5737 5739 5741 5744 5746 5750 5753 5755 5756 5758 5761 5763 5767 5771 5775 5779 5782 5786 5792 5798 5801 5803 5806 5810 5813 5815 5817 5819 5821 5823 5824 5828 5832 5835 5837 5839 5840 5844 5847 5849 5852 5853 5854 5856 5857 5858 5859 5861
5533 5540 5548 5556 5566 5576 5585 5592 5596 5602 5610 5614 5619 5624 5629 5633 5638 5642 5645 5645 5648 5656 5664 5670 5675 5680 5684 5687 5690 5693 5697 5701 5703 5707 5712 5715 5719 5723 5726 5730 5733 5736 5738 5741 5744 5748 5750 5751 5753 5755 5758 5761 5765 5769 5773 5777 5781 5785 5790 5794 5797 5799 5802 5805 5808 5810 5812 5814 5816 5819 5821 5822 5827 5832 5833 5835 5837 5840 5844 5847 5849 5850 5851 5852 5854 5855 5856 5857
5530 5538 5548 5557 5565 5573 5580 5588 5595 5602 5605 5607 5614 5620 5624 5628 5633 5638 5640 5640 5645 5654 5660 5666 5672 5674 5677 5683 5687 5691 5695 5697 5700 5706 5710 5712 5716 5720 5724 5727 5730 5732 5735 5738 5742 5744 5747 5749 5751 5753 5755 5760 5764 5767 5770 5774 5779 5783 5787 5790 5793 5796 5798 5801 5804 5806 5808 5809 5812 5816 5818 5818 5822 5828 5830 5830 5834 5838 5842 5844 5845 5847 5848 5849 5851 5852 5853 5854
5529 5537 5547 5554 5559 5566 5574 5582 5588 5594 5597 5601 5609 5615 5618 5620 5624 5628 5628 5631 5641 5651 5655 5661 5667 5670 5674 5680 5685 5688 5691 5694 5699 5703 5705 5709 5715 5718 5720 5723 5726 5729 5732 5735 5737 5740 5743 5746 5749 5751 5754 5758 5761 5764 5768 5772 5775 5779 5782 5786 5790 5792 5795 5798 5800 5803 5803 5805 5809 5813 5815 5815 5817 5823 5826 5827 5832 5836 5838 5839 5841 5843 5845 5847 5848 5848 5849 5850
5527 5536 5544 5551 5558 5565 5573 5579 5583 5588 5592 5598 5604 5608 5611 5614 5619 5620 5621 5630 5642 5647 5650 5656 5662 5666 5672 5679 5684 5686 5689 5693 5697 5700 5703 5708 5711 5713 5716 5720 5723 5726 5728 5731 5733 5736 5739 5742 5745 5748 5752 5756 5759 5762 5765 5769 5772 5775 5779 5782 5786 5788 5790 5793 5795 5797 5798 5800 5805 5809 5810 5810 5811 5817 5823 5825 5829 5832 5834 5836 5838 5840 5842 5843 5844 5845 5846 5846
5526 5535 5543 5550 5557 5564 5570 5577 5581 5583 5588 5596 5601 5602 5604 5608 5611 5613 5621 5631 5637 5640 5648 5655 5659 5664 5671 5677 5682 5684 5687 5691 5694 5698 5703 5706 5708 5711 5714 5717 5720 5723 5725 5727 5730 5733 5735 5738 5741 5745 5749 5753 5756 5759 5762 5765 5768 5772 5775 5779 5782 5783 5785 5787 5789 5792 5793 5796 5801 5804 5805 5804 5806 5813 5820 5823 5827 5830 5832 5834 5835 5837 5838 5839 5841 5841 5842 5843
5525 5534 5541 5546 5553 5560 5565 5572 5575 5576 5581 5589 5594 5597 5601 5602 5603 5611 5621 5628 5633 5642 5651 5657 5661 5666 5670 5672 5676 5680 5685 5689 5692 5695 5699 5703 5706 5709 5712 5716 5719 5721 5724 5726 5727 5729 5732 5735 5738 5742 5745 5749 5753 5756 5758 5762 5765 5768 5771 5775 5777 5777 5779 5782 5785 5787 5790 5793 5797 5799 5800 5800 5803 5810 5817 5820 5824 5827 5828 5831 5832 5834 5835 5835 5836 5837 5839 5840
5524 5531 5537 5543 5550 5556 5561 5566 5568 5571 5576 5580 5586 5592 5595 5597 5604 5614 5621 5627 5636 5644 5649 5653 5658 5662 5665 5668 5673 5678 5682 5685 5689 5693 5696 5698 5701 5705 5709 5714 5717 5719 5723 5725 5726 5728 5731 5733 5736 5739 5742 5746 5750 5754 5757 5761 5763 5766 5769 5771 5773 5774 5777 5780 5783 5786 5789 5791 5793 5795 5796 5797 5801 5807 5813 5817 5820 5822 5825 5827 5829 5830 5831 5832 5833 5834 5835 5836
5520 5527 5533 5539 5545 5551 5556 5558 5560 5566 5571 5575 5580 5585 5588 5594 5605 5614 5618 5625 5634 5638 5643 5649 5654 5657 5660 5665 5671 5675 5678 5681 5685 5689 5693 5696 5701 5704 5708 5711 5713 5716 5718 5720 5722 5725 5728 5732 5736 5738 5741 5744 5747 5751 5754 5757 5759 5761 5763 5766 5769 5772 5775 5778 5780 5783 5785 5786 5787 5789 5791 5795 5800 5803 5809 5814 5816 5818 5820 5822 5824 5826 5827 5828 5829 5830 5832 5833
5515 5523 5530 5535 5541 5546 5548 5549 5554 5561 5568 5573 5576 5580 5587 5598 5607 5613 5619 5626 5631 5634 5639 5643 5647 5652 5655 5659 5665 5670 5674 5679 5683 5686 5690 5694 5698 5702 5705 5708 5711 5713 5715 5718 5720 5721 5724 5728 5732 5735 5738 5741 5744 5747 5750 5752 5755 5757 5759 5762 5767 5770 5772 5774 5776 5778 5780 5780 5782 5786 5789 5794 5797 5799 5804 5810 5812 5814 5816 5818 5820 5822 5824 5825 5826 5827 5827 5828
5511 5519 5526 5531 5537 5540 5541 5544 5551 5557 5564 5571 5576 5581 5592 5602 5609 5613 5618 5624 5627 5631 5635 5638 5640 5646 5652 5657 5662 5666 5671 5675 5679 5684 5688 5691 5694 5698 5701 5705 5708 5711 5714 5717 5719 5721 5724 5727 5729 5733 5735 5738 5741 5744 5746 5749 5751 5753 5756 5761 5765 5767 5768 5771 5772 5774 5776 5777 5779 5783 5787 5790 5793 5795 5800 5805 5808 5811 5812 5814 5816 5818 5819 5821 5822 5823 5823 5823
5511 5518 5523 5527 5532 5534 5536 5541 5548 5554 5561 5569 5577 5588 5595 5600 5604 5609 5614 5618 5622 5626 5632 5636 5639 5644 5650 5656 5661 5665 5669 5671 5675 5680 5684 5688 5692 5696 5699 5702 5705 5708 5710 5713 5716 5718 5722 5724 5727 5730 5732 5735 5738 5740 5742 5745 5747 5750 5753 5757 5760 5762 5765 5768 5768 5770 5772 5774 5776 5780 5783 5785 5788 5792 5798 5801 5804 5807 5809 5810 5811 5813 5814 5815 5817 5818 5819 5819
5507 5513 5516 5521 5525 5527 5532 5538 5544 5551 5557 5564 5575 5586 5592 5596 5601 5607 5611 5615 5619 5625 5630 5635 5640 5645 5648 5653 5658 5662 5665 5669 5673 5676 5680 5684 5689 5692 5696 5699 5702 5705 5707 5710 5712 5714 5718 5720 5723 5726 5730 5732 5733 5735 5738 5741 5744 5747 5750 5752 5755 5758 5761 5763 5765 5767 5769 5771 5773 5775 5777 5780 5786 5791 5794 5796 5799 5803 5805 5806 5807 5808 5809 5811 5812 5813 5813 5815
5503 5508 5512 5516 5520 5524 5529 5535 5540 5546 5554 5566 5576 5582 5588 5595 5601 5605 5608 5612 5618 5623 5628 5633 5639 5644 5647 5651 5655 5659 5663 5666 5670 5674 5677 5681 5685 5688 5692 5695 5698 5701 5704 5705 5708 5711 5714 5717 5719 5722 5725 5727 5729 5731 5735 5739 5742 5745 5747 5749 5751 5754 5756 5759 5761 5763 5764 5766 5768 5769 5771 5777 5783 5787 5790 5792 5795 5798 5800 5802 5803 5804 5805 5806 5807 5807 5808 5809
5499 5503 5506 5511 5516 5521 5525 5529 5536 5546 5557 5568 5575 5580 5586 5592 5596 5601 5605 5612 5617 5621 5628 5633 5637 5641 5645 5648 5652 5656 5660 5663 5667 5671 5675 5678 5682 5686 5689 5692 5695 5698 5699 5701 5704 5707 5710 5713 5715 5718 5721 5724 5726 5729 5733 5736 5739 5742 5744 5746 5749 5751 5753 5755 5757 5759 5762 5763 5764 5765 5767 5773 5780 5783 5786 5789 5791 5793 5795 5797 5799 5800 5801 5801 5802 5802 5803 5804
5493 5497 5502 5508 5513 5517 5522 5529 5539 5550 5558 5563 5569 5576 5583 5587 5591 5597 5602 5608 5613 5618 5625 5630 5635 5639 5642 5646 5651 5655 5658 5661 5665 5669 5673 5677 5681 5684 5688 5691 5693 5696 5697 5698 5701 5704 5707 5710 5711 5714 5718 5721 5724 5726 5729 5732 5735 5737 5739 5742 5745 5746 5748 5750 5752 5756 5759 5758 5760 5761 5761 5768 5776 5780 5782 5784 5786 5788 5791 5793 5795 5795 5796 5797 5797 5798 5799 5800
5488 5493 5499 5505 5510 5516 5522 5529 5538 5544 5550 5558 5566 5573 5578 5583 5588 5593 5597 5603 5608 5613 5619 5624 5630 5635 5639 5644 5648 5652 5656 5660 5663 5667 5672 5676 5678 5681 5685 5688 5691 5693 5694 5695 5698 5702 5705 5707 5708 5711 5714 5717 5720 5722 5725 5728 5730 5732 5735 5738 5740 5741 5744 5747 5748 5752 5753 5753 5756 5757 5756 5764 5774 5777 5778 5779 5781 5784 5787 5789 5791 5792 5793 5793 5793 5794 5795 5795
5484 5488 5495 5500 5505 5512 5519 5525 5532 5538 5546 5555 5562 5567 5573 5579 5584 5589 5593 5599 5604 5609 5615 5620 5625 5631 5636 5640 5644 5649 5654 5657 5661 5665 5668 5671 5676 5679 5681 5685 5687 5688 5690 5693 5696 5699 5700 5702 5704 5707 5709 5711 5714 5717 5719 5722 5724 5727 5730 5733 5735 5738 5741 5742 5744 5747 5747 5749 5753 5752 5752 5762 5772 5773 5774 5775 5777 5781 5784 5785 5787 5788 5788 5788 5789 5790 5790 5791
5478 5484 5491 5497 5502 5510 5518 5526 5533 5539 5544 5550 5556 5562 5569 5575 5580 5586 5590 5595 5601 5606 5612 5617 5623 5627 5631 5635 5640 5645 5649 5653 5657 5660 5663 5667 5671 5674 5677 5680 5683 5686 5689 5691 5693 5695 5696 5697 5700 5703 5704 5706 5709 5712 5716 5719 5721 5723 5726 5729 5732 5734 5736 5737 5739 5740 5740 5745 5749 5747 5751 5762 5769 5769 5770 5771 5774 5778 5779 5780 5782 5783 5783 5783 5783 5784 5785 5785
5473 5478 5484 5492 5501 5510 5517 5524 5530 5537 5542 5547 5552 5558 5565 5571 5576 5581 5586 5591 5597 5603 5608 5614 5619 5623 5626 5630 5634 5639 5644 5648 5651 5655 5660 5663 5667 5670 5672 5675 5678 5682 5684 5686 5687 5688 5689 5692 5695 5698 5701 5704 5708 5711 5715 5718 5719 5721 5725 5728 5729 5731 5732 5733 5733 5733 5737 5742 5742 5744 5752 5758 5762 5765 5765 5767 5770 5772 5773 5774 5775 5776 5776 5776 5776 5777 5779 5780
5470 5477 5484 5492 5500 5508 5514 5519 5525 5533 5542 5549 5553 5556 5561 5567 5572 5576 5580 5585 5592 5599 5605 5610 5614 5618 5621 5626 5630 5635 5640 5643 5646 5650 5654 5657 5662 5666 5668 5670 5673 5676 5679 5681 5681 5682 5683 5686 5690 5694 5697 5701 5704 5706 5710 5713 5715 5717 5720 5722 5724 5726 5726 5726 5727 5730 5736 5735 5733 5742 5749 5750 5755 5761 5761 5761 5765 5765 5765 5767 5768 5769 5769 5769 5770 5772 5774 5775
5472 5481 5489 5495 5499 5504 5511 5518 5525 5532 5540 5547 5552 5556 5560 5563 5567 5572 5576 5582 5589 5595 5601 5605 5610 5615 5620 5624 5628 5632 5635 5638 5641 5645 5649 5652 5656 5660 5662 5665 5667 5671 5673 5674 5676 5677 5679 5682 5686 5690 5693 5696 5698 5700 5703 5707 5709 5711 5713 5715 5717 5719 5719 5720 5723 5727 5730 5727 5729 5740 5744 5743 5749 5756 5756 5757 5758 5757 5759 5761 5761 5762 5763 5764 5766 5767 5768 5769
5473 5480 5486 5493 5500 5505 5510 5516 5522 5527 5533 5540 5545 5551 5557 5562 5566 5570 5574 5580 5586 5591 5597 5602 5607 5612 5616 5619 5624 5628 5631 5634 5637 5641 5645 5648 5651 5654 5657 5659 5661 5665 5668 5669 5671 5672 5675 5678 5682 5685 5688 5690 5692 5694 5698 5701 5703 5705 5707 5709 5712 5713 5714 5716 5720 5723 5725 5724 5729 5737 5736 5735 5744 5749 5751 5752 5751 5751 5754 5755 5754 5756 5757 5759 5760 5761 5761 5762
5470 5476 5482 5489 5497 5504 5508 5511 5515 5521 5527 5532 5538 5545 5553 5560 5565 5569 5573 5580 5585 5590 5594 5599 5604 5609 5612 5615 5619 5624 5629 5634 5637 5640 5643 5646 5648 5651 5654 5655 5659 5661 5663 5665 5666 5668 5671 5674 5676 5679 5682 5683 5686 5690 5693 5695 5697 5698 5700 5703 5705 5707 5709 5712 5715 5719 5719 5719 5725 5729 5726 5730 5740 5744 5744 5747 5747 5747 5747 5746 5747 5749 5750 5752 5754 5755 5755 5754
5469 5475 5481 5487 5492 5498 5504 5510 5515 5519 5522 5526 5533 5541 5548 5555 5561 5567 5572 5579 5585 5590 5595 5599 5602 5606 5609 5613 5617 5622 5628 5632 5635 5639 5643 5646 5649 5652 5653 5655 5658 5659 5660 5662 5664 5666 5669 5670 5672 5675 5676 5679 5685 5687 5687 5689 5690 5689 5693 5698 5701 5703 5705 5708 5711 5713 5713 5715 5720 5721 5720 5728 5737 5738 5738 5741 5741 5739 5738 5740 5742 5744 5744 5746 5748 5748 5748 5748
5468 5473 5478 5483 5488 5493 5500 5506 5511 5516 5522 5528 5533 5539 5545 5551 5557 5562 5568 5575 5581 5587 5593 5597 5600 5602 5606 5610 5616 5621 5625 5628 5631 5635 5638 5640 5643 5645 5647 5650 5652 5654 5656 5659 5661 5664 5666 5668 5670 5672 5673 5678 5682 5681 5682 5683 5680 5681 5691 5699 5701 5702 5703 5704 5705 5708 5710 5711 5713 5714 5719 5727 5730 5728 5731 5735 5733 5730 5732 5734 5736 5738 5739 5740 5741 5740 5741 5741